CW0009 Weather Reports


Display with metric or nautical units.
time (UTC)temp
F
wind
direction
speed
MPH
gust
MPH
rain 1hr
in
rain 24hr
in
rain mn
in
humidity
%
barometer
mb
20171023203013 57 190 6.0 7.0 0.00 0.00 0.00 85 1020.0
20171023202012 57 175 7.0 7.0 0.00 0.00 0.00 85 1020.0
20171023201032 57 170 7.0 8.0 0.00 0.00 0.00 85 1020.0
20171023200011 57 170 7.0 9.0 0.00 0.00 0.00 85 1020.0
20171023195012 57 180 7.0 9.0 0.00 0.00 0.00 85 1020.0
20171023194011 57 170 6.0 7.0 0.00 0.00 0.00 85 1020.0
20171023192012 57 185 5.0 6.0 0.00 0.00 0.00 85 1020.0
20171023191011 57 180 6.0 6.0 0.00 0.00 0.00 85 1020.0
20171023190010 57 170 7.0 8.0 0.00 0.00 0.00 85 1020.0
20171023184011 57 170 8.0 8.0 0.00 0.00 0.00 85 1020.0
20171023183012 57 205 7.0 9.0 0.00 0.00 0.00 85 1020.0
20171023182012 57 175 6.0 8.0 0.00 0.00 0.00 85 1020.0
20171023181012 57 185 6.0 7.0 0.00 0.00 0.00 86 1020.0
20171023180011 57 195 8.0 8.0 0.00 0.00 0.00 85 1020.0
20171023175032 57 180 7.0 10.0 0.00 0.00 0.00 85 1020.0
20171023173014 57 185 6.0 7.0 0.00 0.00 0.00 85 1020.0
20171023172011 57 180 6.0 7.0 0.00 0.00 0.00 85 1020.0
20171023171012 57 185 5.0 6.0 0.00 0.00 0.00 85 1020.0
20171023170011 58 170 5.0 6.0 0.00 0.00 0.00 85 1020.0
20171023165011 58 185 5.0 8.0 0.00 0.00 0.00 85 1020.0
20171023163034 58 195 7.0 9.0 0.00 0.00 0.00 85 1020.0
20171023162033 58 195 8.0 9.0 0.00 0.00 0.00 85 1020.0
20171023160033 59 200 8.0 13.0 0.00 0.00 0.00 84 1020.0
20171023155033 59 205 8.0 8.0 0.00 0.00 0.00 84 1020.0
20171023154012 59 220 8.0 9.0 0.00 0.00 0.00 85 1020.0
20171023153033 59 205 8.0 10.0 0.00 0.00 0.00 85 1019.0
20171023152012 59 205 7.0 10.0 0.00 0.00 0.00 85 1020.0
20171023151012 59 210 7.0 8.0 0.00 0.00 0.00 85 1019.0
20171023145034 60 215 6.0 7.0 0.00 0.00 0.00 84 1019.0
20171023144033 60 205 5.0 6.0 0.00 0.00 0.00 84 1019.0
20171023143034 60 190 5.0 7.0 0.00 0.00 0.00 84 1020.0
20171023142032 60 220 5.0 7.0 0.00 0.00 0.00 84 1020.0
20171023141033 60 240 6.0 7.0 0.00 0.00 0.00 84 1020.0
20171023140012 60 225 7.0 9.0 0.00 0.00 0.00 84 1019.0
20171023135011 60 225 7.0 9.0 0.00 0.00 0.00 84 1019.0
20171023134033 60 240 7.0 9.0 0.00 0.00 0.00 84 1020.0
20171023133034 60 225 7.0 10.0 0.00 0.00 0.00 84 1019.0
20171023131011 60 250 9.0 12.0 0.00 0.00 0.00 84 1019.0
20171023130033 60 220 8.0 10.0 0.00 0.00 0.00 84 1020.0
20171023125012 60 210 9.0 9.0 0.00 0.00 0.00 84 1020.0
20171023124011 60 220 9.0 10.0 0.00 0.00 0.00 84 1019.0
20171023123014 60 225 10.0 13.0 0.00 0.01 0.00 84 1019.0
20171023122012 60 210 9.0 12.0 0.00 0.01 0.00 84 1019.0
20171023121012 60 235 9.0 10.0 0.00 0.01 0.00 84 1019.0
20171023120032 60 200 9.0 12.0 0.00 0.01 0.00 84 1019.0
20171023115012 60 220 9.0 10.0 0.00 0.01 0.00 84 1019.0
20171023113034 60 225 10.0 12.0 0.00 0.01 0.00 84 1019.0
20171023112033 59 255 10.0 12.0 0.00 0.01 0.00 84 1019.0
20171023111012 59 220 9.0 13.0 0.00 0.01 0.00 85 1019.0
20171023110012 59 215 9.0 9.0 0.00 0.01 0.00 84 1019.0
20171023105011 58 245 9.0 12.0 0.00 0.01 0.00 84 1019.0
20171023104012 58 240 9.0 15.0 0.00 0.01 0.00 84 1019.0
20171023103013 57 250 9.0 10.0 0.00 0.01 0.00 84 1019.0
20171023102011 57 225 9.0 12.0 0.00 0.01 0.00 85 1019.0
20171023101012 57 235 8.0 13.0 0.00 0.01 0.00 85 1019.0
20171023100011 57 205 8.0 8.0 0.00 0.01 0.00 85 1019.0
20171023094011 56 220 9.0 12.0 0.00 0.01 0.00 85 1019.0
20171023093014 56 230 9.0 12.0 0.00 0.01 0.00 85 1019.0
20171023092012 56 230 9.0 10.0 0.00 0.01 0.00 85 1019.0
20171023091011 55 235 8.0 12.0 0.00 0.01 0.00 86 1019.0
20171023090032 54 240 9.0 12.0 0.00 0.01 0.00 86 1019.0
20171023085012 54 235 9.0 10.0 0.00 0.01 0.00 86 1019.0
20171023084011 54 215 8.0 12.0 0.00 0.01 0.00 86 1019.0
20171023082012 53 230 8.0 9.0 0.00 0.01 0.00 86 1019.0
20171023081011 53 215 8.0 12.0 0.00 0.01 0.00 86 1019.0
20171023080012 52 230 8.0 8.0 0.00 0.01 0.00 86 1019.0
20171023075011 52 225 7.0 10.0 0.00 0.01 0.00 86 1019.0
20171023074012 52 225 6.0 9.0 0.00 0.01 0.00 86 1019.0
20171023073014 52 210 7.0 8.0 0.00 0.01 0.00 86 1018.0
20171023072011 52 220 7.0 8.0 0.00 0.01 0.00 86 1018.0
20171023071033 52 230 7.0 7.0 0.00 0.01 0.00 86 1018.0
20171023070010 52 225 8.0 8.0 0.00 0.01 0.00 86 1018.0
20171023065032 52 220 7.0 9.0 0.00 0.01 0.00 86 1018.0
20171023064012 52 230 7.0 9.0 0.00 0.01 0.00 86 1018.0
20171023062011 51 235 8.0 9.0 0.00 0.01 0.00 86 1018.0
20171023061012 51 205 8.0 10.0 0.00 0.01 0.00 86 1018.0
20171023060013 51 230 8.0 9.0 0.00 0.01 0.00 86 1018.0
20171023055012 51 200 9.0 13.0 0.00 0.01 0.00 86 1018.0
20171023053013 51 225 7.0 8.0 0.00 0.01 0.00 86 1018.0
20171023052011 51 230 7.0 9.0 0.00 0.01 0.00 86 1018.0
20171023051012 51 230 6.0 9.0 0.00 0.01 0.00 86 1018.0
20171023050032 51 225 6.0 7.0 0.00 0.01 0.00 86 1018.0
20171023045012 51 230 7.0 7.0 0.00 0.01 0.00 86 1018.0
20171023044012 51 230 7.0 8.0 0.00 0.01 0.00 86 1018.0
20171023043016 51 230 8.0 12.0 0.00 0.01 0.00 86 1018.0
20171023042033 51 225 6.0 12.0 0.00 0.01 0.00 86 1018.0
20171023041033 51 225 6.0 6.0 0.00 0.01 0.00 86 1018.0
20171023040012 51 235 7.0 8.0 0.00 0.01 0.00 86 1018.0
20171023035012 51 235 7.0 8.0 0.00 0.01 0.00 86 1018.0
20171023034033 51 230 8.0 8.0 0.00 0.01 0.00 86 1017.0
20171023032012 51 235 5.0 8.0 0.00 0.01 0.00 86 1017.0
20171023031012 51 215 6.0 6.0 0.00 0.01 0.00 86 1017.0
20171023030033 51 225 7.0 9.0 0.00 0.01 0.00 86 1017.0
20171023025012 51 230 8.0 8.0 0.00 0.01 0.00 86 1017.0
20171023024033 51 235 7.0 12.0 0.00 0.03 0.00 86 1017.0
20171023023014 51 220 8.0 8.0 0.00 0.03 0.00 86 1017.0
20171023021012 51 210 7.0 10.0 0.00 0.03 0.00 86 1017.0
20171023020012 51 220 5.0 6.0 0.00 0.03 0.00 86 1017.0
20171023015011 51 210 5.0 7.0 0.00 0.03 0.00 86 1017.0
20171023013014 51 210 3.0 6.0 0.00 0.07 0.00 86 1017.0
20171023012033 51 235 3.0 5.0 0.00 0.09 0.00 86 1017.0
20171023011012 51 240 3.0 7.0 0.00 0.13 0.00 86 1017.0
20171023010012 51 230 3.0 5.0 0.00 0.16 0.00 86 1016.0
20171023005012 51 240 5.0 5.0 0.00 0.20 0.00 86 1017.0
20171023004011 51 240 5.0 7.0 0.00 0.21 0.00 86 1017.0
20171023003014 51 220 5.0 6.0 0.00 0.21 0.00 86 1017.0
20171023001033 51 220 5.0 7.0 0.00 0.21 0.00 86 1017.0
20171023000012 51 230 6.0 7.0 0.00 0.21 0.00 86 1016.0
20171022235012 51 210 6.0 8.0 0.00 0.21 0.00 86 1016.0
20171022234012 51 230 6.0 7.0 0.00 0.21 0.00 86 1016.0
20171022233013 51 230 6.0 9.0 0.00 0.21 0.00 86 1016.0
20171022232012 51 205 6.0 7.0 0.00 0.21 0.00 86 1016.0
20171022231012 51 220 7.0 6.0 0.00 0.21 0.00 86 1016.0
20171022230011 51 210 7.0 12.0 0.00 0.21 0.00 86 1016.0
20171022225012 51 230 7.0 9.0 0.00 0.21 0.00 86 1016.0
20171022224033 51 215 7.0 9.0 0.00 0.21 0.00 86 1016.0
20171022222011 51 230 9.0 9.0 0.00 0.21 0.00 86 1016.0
20171022221012 51 225 8.0 12.0 0.00 0.21 0.00 86 1016.0
20171022220033 51 235 8.0 10.0 0.00 0.21 0.21 86 1016.0
20171022215012 51 210 8.0 10.0 0.00 0.21 0.21 86 1016.0
20171022214012 51 225 7.0 9.0 0.00 0.21 0.21 86 1016.0
20171022213013 51 215 7.0 8.0 0.00 0.21 0.21 86 1016.0
20171022212012 51 230 6.0 9.0 0.00 0.21 0.21 86 1016.0
20171022211033 51 230 5.0 7.0 0.00 0.21 0.21 86 1016.0
20171022210013 51 225 3.0 5.0 0.00 0.21 0.21 86 1016.0
20171022205012 51 210 5.0 6.0 0.00 0.21 0.21 86 1016.0
20171022204012 50 210 7.0 10.0 0.00 0.21 0.21 86 1016.0